Flag for Germany Weather past 2 weeks in Bietigheim-Bissingen, Baden-Württemberg, Germany

Now
53 °F

Overcast.


Feels Like: 52 °F
Forecast: 47 / 53 °F
Wind: 5 mph from Southwest

Location: Stuttgart-Echterdingen

Current Time: Dec 18, 2014 at 6:56:24 PM

Latest Report: Dec 18, 2014 at 6:00 PM


Visibility: 22 mi

Pressure: 30.05 "Hg

Humidity: 82%

Dew point: 47 °F

Location of Bietigheim-BissingenLocation

Historic Weather in Bietigheim-Bissingen — Graph

°F

Bietigheim-Bissingen temperature yesterday

Maximum temperature yesterday: 43 °F (at 11:00 PM)
Minimum temperature yesterday: 34 °F (at 4:00 AM)
Average temperature yesterday: 39 °F

Past Weeks' High & Low Weather Summary

 TemperatureHumidityPressure
High53 °F (Dec 18, 6:00 PM)98% (Dec 16, 6:00 AM)30.48 "Hg (Dec 16, 6:00 AM)
Low29 °F (Dec 9, 3:00 AM)55% (Dec 12, 1:00 PM)29.76 "Hg (Dec 12, 7:00 PM)
Average40 °F86%30.08 "Hg
* Reported Dec 3 6:00 PM — Dec 18 6:00 PM, Bietigheim-Bissingen, Weather by CustomWeather, © 2014

Note: Actual official high and low records may vary slightly from our data, if they occured in-between our weather recording intervals... More about our weather records

Advertising

Bietigheim-Bissingen weather history for previous 24 hours

 ConditionsComfort  
Time TempWeatherWind HumidityBarometerVisibility
6:00 PM
Dec 18
53 °FOvercast.5 mph82%30.05 "Hg22 mi
5:00 PM52 °FOvercast.3 mph83%30.04 "Hg25 mi
3:00 PM50 °FLow clouds.2 mph93%30.02 "Hg10 mi
2:00 PM50 °FRain. Overcast.3 mph91%30.02 "Hg3 mi
1:00 PM51 °FLight rain. Overcast.5 mph88%30.02 "Hg5 mi
12:00 PM51 °FOvercast.5 mph82%30.01 "Hg37 mi
11:00 AM50 °FOvercast.3 mph82%30.02 "Hg31 mi
9:00 AM48 °FOvercast.2 mph82%30.02 "Hg31 mi
8:00 AM47 °FOvercast.3 mph83%30.02 "Hg43 mi
7:00 AM46 °FOvercast.2 mph85%30.02 "Hg12 mi
6:00 AM45 °FOvercast.2 mph86%30.02 "Hg12 mi
5:00 AM45 °FOvercast.3 mph86%30.02 "Hg12 mi
3:00 AM45 °FOvercast.2 mph85%30.02 "Hg12 mi
2:00 AM45 °FOvercast.3 mph86%30.01 "Hg12 mi
1:00 AM44 °FOvercast.5 mph87%30.01 "Hg12 mi
12:00 AM44 °FLow clouds.3 mph87%29.98 "Hg12 mi
11:00 PM
Dec 17
43 °FLow clouds.3 mph87%29.97 "Hg12 mi
9:00 PM42 °FLow clouds.5 mph89%29.93 "Hg12 mi
8:00 PM41 °FLow clouds.3 mph88%29.90 "Hg12 mi
7:00 PM40 °FLight rain. Low clouds.3 mph92%29.88 "Hg12 mi
6:00 PM40 °FLight rain. Overcast.5 mph92%29.87 "Hg11 mi
Weather by CustomWeather, © 2014

See weather overviewHow to use our weather pages